When you browse on this site, cookies collect data to enhance your experience and personalize the content and advertising you see.
Visit our Privacy Policy to learn more. By continuing to use the site, you agree to this use of cookies and data.
  • In Österreich
  • Länderverzeichnis
  • Für 7 Tage
  • Wassertemperatur
  • Satellitenkarten
  • Wetterkarte
  • News
  • Widgets
  • user-avatar
    Anmelden

    Stündliche Wetter Crofton

    Heute, 26 Juni, Mittwoch

    Zeit Temperatur Niederschläge Wind Luftdruck Luftfeuchtigkeit
    00:00 +25°C° 0 mm 3 m/S 758 mmHg 60%
    01:00 +25°C° 0 mm 3 m/S 759 mmHg 60%
    02:00 +24°C° 0 mm 2 m/S 759 mmHg 62%
    03:00 +24°C° 0 mm 2 m/S 759 mmHg 63%
    04:00 +23°C° 0 mm 2 m/S 759 mmHg 65%
    05:00 +24°C° 0 mm 2 m/S 760 mmHg 64%
    06:00 +25°C° 0 mm 1 m/S 760 mmHg 64%
    07:00 +25°C° 0 mm 1 m/S 760 mmHg 64%
    08:00 +27°C° 0 mm 1 m/S 761 mmHg 58%
    09:00 +29°C° 0 mm 1 m/S 761 mmHg 52%
    10:00 +30°C° 0 mm 1 m/S 761 mmHg 46%
    11:00 +31°C° 0 mm 2 m/S 761 mmHg 45%
    12:00 +32°C° 0 mm 2 m/S 761 mmHg 44%
    13:00 +33°C° 0 mm 3 m/S 760 mmHg 43%
    14:00 +32°C° 0 mm 2 m/S 760 mmHg 43%
    15:00 +32°C° 0 mm 2 m/S 760 mmHg 44%
    16:00 +34°C° 0 mm 2 m/S 759 mmHg 45%
    17:00 +31°C° 0 mm 2 m/S 759 mmHg 50%
    18:00 +30°C° 0 mm 2 m/S 760 mmHg 55%
    19:00 +29°C° 0 mm 2 m/S 760 mmHg 60%
    20:00 +28°C° 0 mm 2 m/S 760 mmHg 60%
    21:00 +28°C° 0 mm 2 m/S 760 mmHg 61%
    22:00 +27°C° 0 mm 2 m/S 761 mmHg 61%
    23:00 +27°C° 0 mm 2 m/S 761 mmHg 63%

    Morgen, 27 Juni, Donnerstag

    Zeit Temperatur Niederschläge Wind Luftdruck Luftfeuchtigkeit
    00:00 +26°C° 0 mm 2 m/S 761 mmHg 65%
    01:00 +26°C° 0 mm 2 m/S 761 mmHg 67%
    02:00 +25°C° 0 mm 2 m/S 762 mmHg 69%
    03:00 +25°C° 0 mm 2 m/S 762 mmHg 71%
    04:00 +25°C° 0 mm 2 m/S 762 mmHg 73%
    05:00 +25°C° 0 mm 2 m/S 762 mmHg 72%
    06:00 +26°C° 0 mm 2 m/S 763 mmHg 70%
    07:00 +27°C° 0 mm 2 m/S 763 mmHg 68%
    08:00 +28°C° 0 mm 2 m/S 763 mmHg 61%
    09:00 +29°C° 0 mm 2 m/S 763 mmHg 54%
    10:00 +31°C° 0 mm 2 m/S 763 mmHg 47%
    11:00 +32°C° 0 mm 2 m/S 763 mmHg 45%
    12:00 +32°C° 0 mm 2 m/S 762 mmHg 43%
    13:00 +34°C° 0 mm 2 m/S 762 mmHg 41%
    14:00 +34°C° 0 mm 2 m/S 762 mmHg 43%
    15:00 +34°C° 0 mm 2 m/S 762 mmHg 45%
    16:00 +34°C° 0 mm 2 m/S 761 mmHg 47%
    17:00 +32°C° 0 mm 2 m/S 761 mmHg 51%
    18:00 +31°C° 0 mm 1 m/S 761 mmHg 55%
    19:00 +29°C° 0 mm 1 m/S 762 mmHg 59%
    20:00 +29°C° 0 mm 1 m/S 762 mmHg 60%
    21:00 +28°C° 0 mm 1 m/S 762 mmHg 60%
    22:00 +27°C° 0 mm 1 m/S 762 mmHg 61%
    23:00 +26°C° 0 mm 1 m/S 762 mmHg 62%

    übermorgen, 28 Juni, Freitag

    Zeit Temperatur Niederschläge Wind Luftdruck Luftfeuchtigkeit
    00:00 +26°C° 0 mm 1 m/S 762 mmHg 63%
    01:00 +26°C° 0 mm 2 m/S 762 mmHg 64%
    02:00 +25°C° 0 mm 1 m/S 762 mmHg 66%
    03:00 +25°C° 0 mm 1 m/S 762 mmHg 68%
    04:00 +25°C° 0 mm 1 m/S 762 mmHg 70%
    05:00 +26°C° 0 mm 1 m/S 762 mmHg 69%
    06:00 +27°C° 0 mm 1 m/S 762 mmHg 68%
    07:00 +28°C° 0 mm 1 m/S 762 mmHg 68%
    08:00 +29°C° 0 mm 1 m/S 762 mmHg 62%
    09:00 +31°C° 0 mm 1 m/S 762 mmHg 56%
    10:00 +33°C° 0 mm 1 m/S 762 mmHg 49%
    11:00 +34°C° 0 mm 1 m/S 762 mmHg 47%
    12:00 +35°C° 0 mm 1 m/S 762 mmHg 45%
    13:00 +36°C° 0 mm 2 m/S 762 mmHg 42%
    14:00 +36°C° 0 mm 2 m/S 761 mmHg 43%
    15:00 +36°C° 0 mm 2 m/S 761 mmHg 44%
    16:00 +36°C° 0 mm 2 m/S 760 mmHg 45%
    17:00 +35°C° 0 mm 2 m/S 760 mmHg 50%
    18:00 +34°C° 0 mm 2 m/S 760 mmHg 55%
    19:00 +31°C° 0 mm 2 m/S 760 mmHg 60%
    20:00 +30°C° 0.1 mm 2 m/S 760 mmHg 63%
    21:00 +29°C° 0.1 mm 2 m/S 760 mmHg 66%
    22:00 +28°C° 0.1 mm 3 m/S 760 mmHg 68%
    23:00 +28°C° 0.1 mm 2 m/S 760 mmHg 69%

    29 Juni, Samstag

    Zeit Temperatur Niederschläge Wind Luftdruck Luftfeuchtigkeit
    00:00 +28°C° 0.1 mm 2 m/S 760 mmHg 70%
    01:00 +27°C° 0.1 mm 2 m/S 760 mmHg 70%
    02:00 +27°C° 0 mm 2 m/S 760 mmHg 72%
    03:00 +27°C° 0 mm 2 m/S 759 mmHg 73%
    04:00 +27°C° 0 mm 2 m/S 759 mmHg 75%
    05:00 +27°C° 0 mm 2 m/S 760 mmHg 73%
    06:00 +28°C° 0 mm 2 m/S 760 mmHg 72%
    07:00 +29°C° 0 mm 2 m/S 760 mmHg 70%
    08:00 +30°C° 0 mm 2 m/S 760 mmHg 65%
    09:00 +32°C° 0 mm 2 m/S 760 mmHg 59%
    10:00 +34°C° 0 mm 2 m/S 760 mmHg 54%
    11:00 +35°C° 0 mm 3 m/S 760 mmHg 52%
    12:00 +36°C° 0 mm 3 m/S 759 mmHg 50%
    13:00 +36°C° 0 mm 4 m/S 759 mmHg 48%
    14:00 +37°C° 0.1 mm 4 m/S 758 mmHg 47%
    15:00 +37°C° 0.1 mm 3 m/S 758 mmHg 47%
    16:00 +37°C° 0.1 mm 3 m/S 758 mmHg 46%
    17:00 +36°C° 0.1 mm 3 m/S 757 mmHg 50%
    18:00 +35°C° 0.1 mm 2 m/S 757 mmHg 53%
    19:00 +32°C° 0.1 mm 2 m/S 757 mmHg 57%
    20:00 +31°C° 0.6 mm 2 m/S 757 mmHg 62%
    21:00 +29°C° 0.6 mm 3 m/S 758 mmHg 66%
    22:00 +28°C° 0.6 mm 3 m/S 758 mmHg 71%
    23:00 +27°C° 0.1 mm 3 m/S 757 mmHg 70%

    30 Juni, Sonntag

    Zeit Temperatur Niederschläge Wind Luftdruck Luftfeuchtigkeit
    00:00 +27°C° 0.1 mm 3 m/S 757 mmHg 69%
    01:00 +26°C° 0.1 mm 3 m/S 757 mmHg 68%
    02:00 +26°C° 0 mm 3 m/S 757 mmHg 70%
    03:00 +26°C° 0 mm 3 m/S 756 mmHg 72%
    04:00 +26°C° 0 mm 3 m/S 756 mmHg 75%
    05:00 +26°C° 0 mm 3 m/S 756 mmHg 72%
    06:00 +27°C° 0 mm 3 m/S 756 mmHg 70%
    07:00 +28°C° 0 mm 4 m/S 756 mmHg 68%
    08:00 +30°C° 0 mm 4 m/S 756 mmHg 62%
    09:00 +33°C° 0 mm 4 m/S 755 mmHg 56%
    10:00 +34°C° 0 mm 4 m/S 755 mmHg 50%
    11:00 +35°C° 0 mm 5 m/S 754 mmHg 48%
    12:00 +35°C° 0 mm 6 m/S 754 mmHg 46%
    13:00 +36°C° 0 mm 6 m/S 754 mmHg 43%
    14:00 +36°C° 0 mm 6 m/S 753 mmHg 45%
    15:00 +36°C° 0 mm 6 m/S 752 mmHg 46%
    16:00 +36°C° 0 mm 5 m/S 752 mmHg 48%
    17:00 +35°C° 0 mm 5 m/S 752 mmHg 51%
    18:00 +34°C° 0 mm 5 m/S 752 mmHg 53%
    19:00 +33°C° 0 mm 5 m/S 752 mmHg 56%
    20:00 +32°C° 0 mm 5 m/S 752 mmHg 58%
    21:00 +30°C° 0 mm 5 m/S 753 mmHg 61%
    22:00 +29°C° 0 mm 5 m/S 754 mmHg 63%
    23:00 +27°C° 0 mm 5 m/S 754 mmHg 61%

    1 Juli, Montag

    Zeit Temperatur Niederschläge Wind Luftdruck Luftfeuchtigkeit
    00:00 +26°C° 0 mm 5 m/S 754 mmHg 60%
    01:00 +23°C° 0 mm 5 m/S 755 mmHg 59%
    02:00 +22°C° 0 mm 5 m/S 755 mmHg 58%
    03:00 +21°C° 0 mm 4 m/S 756 mmHg 57%
    04:00 +20°C° 0 mm 4 m/S 756 mmHg 56%
    05:00 +21°C° 0 mm 4 m/S 756 mmHg 55%
    06:00 +21°C° 0 mm 4 m/S 757 mmHg 55%
    07:00 +21°C° 0 mm 4 m/S 757 mmHg 55%
    08:00 +23°C° 0 mm 4 m/S 757 mmHg 51%
    09:00 +25°C° 0 mm 4 m/S 757 mmHg 47%
    10:00 +27°C° 0 mm 4 m/S 757 mmHg 44%
    11:00 +28°C° 0 mm 4 m/S 757 mmHg 42%
    12:00 +29°C° 0 mm 4 m/S 757 mmHg 40%
    13:00 +30°C° 0 mm 4 m/S 757 mmHg 38%
    14:00 +30°C° 0 mm 3 m/S 756 mmHg 39%
    15:00 +30°C° 0 mm 3 m/S 756 mmHg 40%
    16:00 +30°C° 0 mm 3 m/S 756 mmHg 41%
    17:00 +29°C° 0 mm 2 m/S 756 mmHg 45%
    18:00 +28°C° 0 mm 2 m/S 756 mmHg 50%
    19:00 +27°C° 0 mm 1 m/S 756 mmHg 55%
    20:00 +26°C° 0 mm 1 m/S 757 mmHg 57%
    21:00 +25°C° 0 mm 1 m/S 757 mmHg 60%
    22:00 +24°C° 0 mm 1 m/S 757 mmHg 62%
    23:00 +24°C° 0 mm 1 m/S 757 mmHg 62%
    Mehr zeigen